Flag for Lithuania Weather past 2 weeks in Kaunas, Lithuania

Now
55 °F

Clear.


Feels Like: 54 °F
Forecast: 54 / 68 °F
Wind: 6 mph from Southwest

Location: Kaunas

Current Time: Jul 28, 2015 at 11:26:04 PM

Latest Report: Jul 28, 2015 at 10:50 PM


Visibility: 10 mi

Pressure: 29.59 "Hg

Humidity: 94%

Dew point: 54 °F

Location of KaunasLocation

Historic Weather in Kaunas — Graph

°F

Kaunas temperature yesterday

Maximum temperature yesterday: 72 °F (at 5:50 PM)
Minimum temperature yesterday: 50 °F (at 5:20 AM)
Average temperature yesterday: 62 °F

Past Weeks' High & Low Weather Summary

 TemperatureHumidityPressure
High81 °F (Jul 25, 4:20 PM)100% (Jul 14, 5:20 AM)30.04 "Hg (Jul 14, 5:20 AM)
Low46 °F (Jul 18, 5:20 AM)32% (Jul 18, 5:50 PM)29.50 "Hg (Jul 20, 3:50 AM)
Average62 °F70%29.85 "Hg
* Reported Jul 13 10:20 PM — Jul 28 10:20 PM, Kaunas, Weather by CustomWeather, © 2015

Note: Actual official high and low records may vary slightly from our data, if they occured in-between our weather recording intervals... More about our weather records

Advertising

Kaunas weather history for previous 24 hours

 ConditionsComfort  
Time TempWeatherWind HumidityBarometerVisibility
10:20 PM
Tue, Jul 28
57 °FPassing clouds.6 mph88%29.59 "HgN/A
9:50 PM57 °FSunny.6 mph88%29.59 "Hg10 mi
9:20 PM59 °FSunny.6 mph88%29.59 "Hg10 mi
8:50 PM59 °FOvercast.3 mph88%29.56 "HgN/A
8:20 PM61 °FLight rain. Clear.7 mph83%29.59 "HgN/A
7:50 PM63 °FSunny.2 mph77%29.56 "Hg10 mi
7:20 PM63 °FPassing clouds.5 mph83%29.59 "HgN/A
6:50 PM64 °FThundershowers. Partly sunny.3 mph73%29.56 "HgN/A
6:20 PM61 °FMore clouds than sun.3 mph83%29.56 "HgN/A
5:50 PM61 °FBroken clouds.6 mph88%29.56 "HgN/A
5:20 PM59 °FSprinkles. More clouds than sun.9 mph88%29.56 "HgN/A
4:50 PM63 °FPartly sunny.10 mph77%29.56 "HgN/A
4:20 PM66 °FThundershowers. Broken clouds.10 mph64%29.56 "HgN/A
3:50 PM66 °FMostly cloudy.8 mph64%29.56 "HgN/A
3:20 PM66 °FSprinkles. Broken clouds.8 mph64%29.56 "HgN/A
3:03 PM68 °FThundershowers. Broken clouds.13 mph60%29.56 "HgN/A
2:50 PM70 °FBroken clouds.8 mph57%29.56 "HgN/A
2:20 PM70 °FBroken clouds.12 mph57%29.56 "HgN/A
1:50 PM72 °FBroken clouds.9 mph50%29.56 "HgN/A
1:20 PM70 °FScattered clouds.8 mph57%29.56 "HgN/A
12:20 PM68 °FPassing clouds.7 mph64%29.59 "HgN/A
11:50 AM68 °FPassing clouds.7 mph60%29.59 "HgN/A
11:20 AM66 °FSunny.8 mph68%29.59 "Hg10 mi
10:50 AM64 °FPassing clouds.7 mph73%29.59 "HgN/A
10:20 AM63 °FPassing clouds.6 mph77%29.59 "HgN/A
9:50 AM63 °FSunny.7 mph73%29.59 "Hg10 mi
9:20 AM61 °FSunny.6 mph77%29.59 "Hg10 mi
8:50 AM59 °FSunny.6 mph82%29.59 "Hg10 mi
8:20 AM59 °FSunny.6 mph82%29.59 "Hg10 mi
7:50 AM57 °FPassing clouds.5 mph88%29.59 "HgN/A
7:20 AM55 °FSunny.6 mph88%29.59 "Hg10 mi
6:50 AM55 °FLight rain. Clear.6 mph88%29.62 "HgN/A
6:20 AM57 °FLight rain. Clear.2 mph82%29.62 "HgN/A
5:50 AM55 °FLight rain. Clear.3 mph88%29.62 "HgN/A
5:20 AM57 °FLight rain. Clear.2 mph82%29.62 "HgN/A
4:50 AM57 °FLight rain. Clear.5 mph77%29.62 "HgN/A
4:20 AM59 °FLight rain. Clear.5 mph72%29.65 "HgN/A
3:50 AM59 °FClear.6 mph68%29.65 "Hg10 mi
3:20 AM59 °FOvercast.6 mph68%29.65 "HgN/A
2:50 AM59 °FMostly cloudy.6 mph68%29.65 "HgN/A
2:20 AM59 °FOvercast.7 mph68%29.65 "HgN/A
12:50 AM57 °FOvercast.6 mph82%29.68 "HgN/A
12:20 AM57 °FOvercast.5 mph77%29.68 "HgN/A
11:50 PM
Mon, Jul 27
59 °FClear.2 mph72%29.68 "Hg10 mi
11:20 PM61 °FPassing clouds.3 mph68%29.68 "HgN/A
Weather by CustomWeather, © 2015

See weather overviewHow to use our weather pages